Location: �terpigny
(49.8910°N, 2.9249°E)
Time: 15:44:26
(UTC+00:00)

Cosmos 2344 - Pass Details

Date: 24 October 2021
Orbit: 1234 x 3008 km, 63.3° (Epoch: 27 November)

Event Time Altitude Azimuth Distance (km) Brightness Sun altitude
Rises 18:37:55 0° 316° (NW) 4,478 7.2 -19.7°
Reaches altitude 10° 18:40:29 10° 315° (NW) 3,629 6.6 -20.1°
Maximum altitude 18:49:29 77° 232° (SW) 1,862 4.4 -21.5°
Drops below altitude 10° 19:02:05 10° 150° (SSE) 4,953 6.3 -23.6°
Enters shadow 19:04:05 - 149° (SSE) 5,551 6.5 -23.9°
